Weather in Kostomuksa

Russia / Republic of Karelia     62°33′34″N   32°43′15″E
temp.,
°C
wind,
m/s
gust,
m/s
humid.,
%
clouds,
%
prec.,
mm/h
press.,
hPa
HPBL,
m
27 july, tue
tue2700:00+15nw22926 1.9 101929
03:00+13ne239756 2.4 102072
06:00+13e249595 0.8 1021130
09:00+17ese2383100 0.9 1020359
12:00+24ese11545 0.0 1019994
15:00+25ne344384 0.0 10172125
18:00+23ese255558 0.3 1017474
21:00+17s38845 0.3 1017248
28 july, wed
wed2800:00+14ese22905 0.0 101718
03:00+15se2579100 0.0 1016140
06:00+15sse1374100 0.0 1015112
09:00+20s126390 0.0 1013330
12:00+25sw234535 0.0 1011922
15:00+28n143478 0.0 10082796
18:00+18nnw2384100 1.4 100874
21:00+18ssw2280100 3.3 100625
29 july, thu
thu2900:00+16sw1281100 0.1 100639
03:00+16wsw2389100 0.1 100462
06:00+16wsw2692100 0.3 1003179
09:00+20sw2471100 0.3 1001491
12:00+17ese1192100 3.2 100114
15:00+21ssw3680100 5.8 999716
18:00+17wsw41191100 2.9 998595
21:00+17wsw41191100 5.4 997403
30 july, fri
fri3000:00+14sw28974 0.8 997212
03:00+13sw399812 0.8 997220
06:00+14sw3109798 0.0 997345
09:00+17sw4784100 0.1 998773
12:00+21sw5852100 0.1 9971838
15:00+21sw695484 0.4 9971584
18:00+18sw397488 1.4 996829
21:00+16ssw4116415 1.6 996488
31 july, sat
sat3100:00+13ssw3117856 0.0 996394
03:00+14s3117884 0.1 995544
06:00+13sse41286100 0.0 993540
09:00+13s5119298 1.2 991925
12:00+13se4997100 5.3 990478
15:00+14s389755 10.7 990515
18:00+16wsw379011 1.6 990740
21:00+14w49965 2.7 992430